Flag for Germany Weather past 2 weeks in Gronau (Westfalen), North Rhine-Westphalia, Germany

Now
69 °F

Sunny.


Feels Like: 69 °F
Forecast: 53 / 71 °F
Wind: 2 mph from Southeast

Location: Twenthe

Current Time: Aug 27, 2014 at 7:40:49 PM

Latest Report: Aug 27, 2014 at 5:00 PM


Visibility: 19 mi

Pressure: 30.03 "Hg

Humidity: 46%

Dew point: 47 °F

Location of Gronau (Westfalen)Location

Historic Weather in Gronau (Westfalen) — Graph

°F

Gronau (Westfalen) temperature yesterday

Maximum temperature yesterday: 62 °F (at 6:00 PM)
Minimum temperature yesterday: 49 °F (at 11:00 PM)
Average temperature yesterday: 56 °F

Past Weeks' High & Low Weather Summary

 TemperatureHumidityPressure
High69 °F (Aug 13, 1:00 PM)100% (Aug 16, 6:00 AM)30.08 "Hg (Aug 16, 6:00 AM)
Low42 °F (Aug 27, 6:00 AM)46% (Aug 27, 5:00 PM)29.60 "Hg (Aug 18, 8:00 AM)
Average56 °F85%29.87 "Hg
* Reported Aug 12 5:00 PM — Aug 27 5:00 PM, Gronau (Westfalen), Weather by CustomWeather, © 2014

Note: Actual official high and low records may vary slightly from our data, if they occured in-between our weather recording intervals... More about our weather records

Advertising

Gronau (Westfalen) weather history for previous 24 hours

 ConditionsComfort  
Time TempWeatherWind HumidityBarometerVisibility
5:00 PM
Aug 27
69 °FSunny.2 mph46%30.03 "Hg19 mi
4:00 PM69 °FPartly sunny.2 mph50%30.03 "Hg22 mi
3:00 PM68 °FPassing clouds.2 mph51%30.03 "Hg22 mi
2:00 PM69 °FPassing clouds.N/A56%30.03 "Hg19 mi
1:00 PM66 °FScattered clouds.1 mph61%30.04 "Hg14 mi
12:00 PM64 °FSunny.N/A60%30.04 "Hg19 mi
11:00 AM63 °FSunny.1 mph66%30.03 "Hg19 mi
10:00 AM59 °FPassing clouds.1 mph81%30.02 "Hg9 mi
9:00 AM53 °FFog.1 mph93%30.00 "Hg6 mi
8:00 AM45 °FSunny.No wind100%29.98 "Hg3 mi
7:00 AM42 °FPassing clouds.No wind100%29.96 "Hg0 mi
6:00 AM42 °FClear.No wind99%29.95 "Hg0 mi
5:00 AM42 °FClear.No wind100%29.94 "Hg0 mi
4:00 AM44 °FClear.No wind99%29.92 "Hg0 mi
3:00 AM45 °FClear.1 mph100%29.91 "Hg1 mi
2:00 AM45 °FPassing clouds.3 mph97%29.90 "Hg14 mi
1:00 AM49 °FClear.2 mph96%29.88 "Hg11 mi
12:00 AM49 °FClear.2 mph96%29.87 "Hg8 mi
11:00 PM
Aug 26
49 °FClear.2 mph96%29.85 "Hg7 mi
10:00 PM51 °FClear.1 mph95%29.83 "Hg9 mi
9:00 PM54 °FClear.1 mph91%29.81 "Hg12 mi
8:00 PM59 °FSunny.1 mph82%29.79 "Hg17 mi
7:00 PM61 °FOvercast.1 mph75%29.78 "Hg17 mi
Weather by CustomWeather, © 2014

See weather overviewHow to use our weather pages